Theta_e
289 288 288 288 288 289 289 289 289 289 289 289 289 289 288 288 288 289 289 290 291 292 292 294 295 296 296 296 297 298 299 301 302 302 303 302 302 304 307 311 313 316 320 322 323 324 324 322 319 318 320 322
288 288 287 287 287 287 288 288 288 288 288 288 288 288 288 287 287 287 288 288 290 291 292 292 294 295 295 295 295 296 298 300 301 301 302 302 302 302 304 308 310 312 316 318 321 323 323 322 320 317 317 319
286 286 286 286 286 286 286 286 287 287 287 287 287 287 287 287 286 286 286 287 288 290 291 291 292 294 294 295 294 294 296 298 299 300 301 302 302 302 302 304 306 309 311 314 316 319 321 320 319 318 316 317
285 285 285 285 285 285 285 285 286 286 286 286 286 286 286 286 286 285 285 285 286 287 289 290 291 292 293 294 294 294 294 295 297 298 299 300 301 302 302 303 304 305 307 310 312 314 318 318 317 318 316 315
284 285 284 284 284 284 284 284 285 285 285 285 285 285 285 285 285 285 284 284 285 285 287 288 289 290 292 293 293 293 293 294 294 295 297 299 300 301 302 303 303 303 304 307 309 311 313 315 316 317 316 314
284 284 284 284 284 284 283 284 284 284 284 284 284 284 284 284 284 284 283 283 284 284 285 286 286 287 289 291 292 293 293 293 293 293 294 296 298 300 301 302 303 303 303 304 306 308 310 313 314 315 315 314
283 283 283 283 283 283 283 283 283 283 283 283 283 283 283 283 283 283 283 283 283 283 283 284 285 285 286 288 290 291 292 293 293 293 293 294 295 297 299 301 302 302 302 303 304 305 307 309 312 313 313 314
283 283 283 283 283 283 283 283 283 283 283 283 283 283 283 283 283 283 282 282 282 282 283 283 284 284 285 286 287 289 291 292 293 293 293 293 293 294 296 298 300 300 301 302 303 304 305 306 308 310 312 312
283 283 283 283 283 283 283 283 283 283 283 283 282 282 282 282 282 282 282 282 282 282 282 283 283 283 284 284 285 286 288 290 292 292 293 293 293 293 293 295 296 298 298 300 302 303 304 305 305 307 309 310
282 282 282 282 283 283 282 282 282 282 282 282 282 282 282 282 282 282 282 281 281 281 282 282 282 283 283 283 284 284 285 287 289 291 292 292 292 292 292 293 293 294 295 297 299 302 303 304 304 305 306 308
282 282 282 282 282 282 282 282 282 282 282 282 282 281 281 281 281 281 281 281 281 281 281 281 282 282 282 282 283 283 283 285 286 288 289 291 291 292 292 292 292 292 292 294 297 299 302 303 304 304 304 305
282 282 282 282 282 282 282 282 282 282 282 281 281 281 281 281 281 281 281 281 281 281 281 281 281 282 282 282 282 282 282 283 284 285 287 288 289 291 292 292 292 292 291 291 294 297 299 301 303 304 304 305
282 282 282 282 282 282 282 282 282 281 281 281 281 281 281 281 281 281 281 281 281 281 281 281 281 281 282 282 281 281 282 282 282 283 285 286 287 288 290 291 292 292 291 291 291 294 296 298 301 303 304 304
281 281 281 282 282 282 281 281 281 281 281 281 280 280 280 280 280 280 281 281 281 281 281 281 281 281 281 282 282 281 281 281 282 282 283 284 285 286 288 289 290 291 292 291 290 292 293 295 298 301 302 303
281 281 281 281 281 281 280 280 280 280 281 280 280 280 280 280 280 280 280 281 281 281 281 280 280 281 281 281 281 281 281 281 281 281 281 282 283 284 285 287 288 289 291 292 291 290 291 293 294 298 300 302
281 281 280 280 280 280 280 280 280 280 280 280 280 280 279 279 279 279 280 281 281 281 280 280 280 280 280 280 281 281 281 281 281 281 281 281 281 282 283 284 285 286 288 291 292 290 290 291 292 294 297 300
280 280 280 280 280 280 279 279 280 280 280 280 280 279 279 279 279 279 280 280 280 280 280 280 280 280 280 280 280 281 281 281 281 281 281 281 281 281 282 282 284 285 286 288 290 291 290 290 290 291 293 296
280 280 280 280 280 279 279 279 279 279 280 280 279 279 278 278 278 279 279 280 280 280 280 280 280 280 280 280 280 280 280 281 281 281 281 281 281 281 281 282 282 283 284 285 287 290 291 290 290 290 291 292
280 280 280 280 280 279 279 279 279 279 279 279 279 279 278 278 278 279 279 279 280 279 279 279 279 279 279 279 280 280 280 280 281 281 281 281 281 281 281 281 281 282 283 284 285 287 290 291 291 290 290 290
280 280 280 280 280 280 280 280 280 279 279 279 279 279 278 278 278 279 279 279 279 279 279 279 279 279 279 279 279 279 279 280 280 280 280 281 280 281 281 281 281 281 282 283 284 285 287 289 291 292 291 291
280 280 280 280 280 280 280 280 280 279 279 279 279 279 278 278 278 278 279 279 279 279 279 279 279 279 279 279 279 279 279 279 280 280 280 280 280 280 280 281 281 281 281 282 283 284 285 287 289 291 292 292
279 279 280 280 280 281 281 280 280 279 279 279 279 279 278 278 278 278 278 278 279 279 278 278 278 278 279 279 279 279 279 279 279 279 280 280 280 280 280 280 281 281 281 281 282 283 284 285 287 289 291 292
279 279 279 280 280 281 281 280 280 279 279 279 279 279 279 278 278 278 277 277 278 278 278 278 278 278 278 278 279 279 279 279 279 279 279 280 280 280 280 280 280 280 280 281 281 282 283 284 286 287 289 290
280 280 280 280 281 281 281 280 280 280 279 279 279 279 278 278 278 277 277 277 277 277 277 278 278 278 278 278 279 279 279 279 279 279 279 279 280 280 280 280 279 279 279 280 281 281 282 283 284 285 287 288
279 279 279 280 280 281 281 281 280 280 279 279 279 278 278 278 278 277 277 276 276 276 276 277 277 277 278 278 278 279 279 279 279 279 279 279 278 279 279 279 279 279 279 279 280 281 282 283 283 284 285 286
279 279 279 280 280 280 281 280 280 279 279 279 279 278 277 277 278 277 277 276 275 275 275 276 276 276 277 278 278 278 278 278 278 278 278 277 277 277 278 278 278 278 278 278 278 279 281 282 282 283 284 285
279 279 279 279 279 280 280 280 279 279 278 278 278 278 277 277 278 277 277 276 275 275 275 275 275 276 276 277 277 278 278 278 278 277 277 277 277 277 277 277 277 278 278 277 277 278 279 279 281 282 283 284
279 279 279 279 279 279 280 280 279 278 278 278 278 278 277 277 277 277 277 276 276 275 275 275 275 275 275 276 277 277 277 277 277 277 276 276 276 276 276 276 276 277 277 276 276 277 277 278 278 279 281 283
279 279 279 279 279 279 279 279 279 278 278 278 278 278 278 277 277 277 277 276 276 275 275 275 275 275 275 276 276 277 277 277 277 277 277 276 276 276 275 275 275 275 276 276 276 276 276 277 277 278 280 281
279 279 279 279 279 279 279 279 279 278 278 278 278 278 278 278 277 277 277 277 276 276 276 275 275 275 276 276 276 276 277 277 277 277 277 276 276 275 275 275 275 275 275 275 275 275 275 276 276 277 277 277
279 279 278 278 278 279 279 279 279 279 278 278 279 279 279 278 278 278 278 277 277 277 277 276 276 276 276 276 276 277 277 277 277 277 277 277 276 275 275 275 274 274 274 274 275 275 275 275 276 276 276 276
Wind_Speed
28 28 29 30 30 30 31 32 32 32 32 33 33 33 32 32 33 31 30 30 29 31 33 34 35 35 34 31 29 29 29 28 26 24 24 25 24 21 15 10 7 8 14 18 23 24 17 17 22 23 23 23
29 29 30 31 32 31 31 32 32 32 32 33 33 33 32 31 32 31 29 29 28 29 31 32 34 34 34 32 30 30 31 31 28 25 24 25 26 24 18 14 11 9 10 12 16 23 20 15 19 22 23 24
28 29 30 30 31 31 31 31 31 31 31 32 33 33 33 31 31 31 29 28 27 27 29 31 32 33 34 33 31 31 32 33 30 27 26 26 27 26 22 17 14 13 11 11 11 16 20 15 16 22 25 25
26 26 27 27 28 29 29 29 30 30 30 31 31 32 33 32 31 31 30 29 26 25 27 29 30 31 33 34 32 31 31 32 31 29 28 27 27 28 26 21 17 16 15 14 11 10 15 14 12 21 26 25
29 28 27 26 26 26 27 27 28 28 28 29 30 31 32 33 33 32 32 31 29 26 25 27 28 29 31 33 33 31 31 31 31 30 29 28 28 28 27 23 19 18 17 16 14 12 10 11 11 18 25 26
32 31 28 26 25 25 26 26 27 27 26 28 29 30 31 33 34 34 34 33 31 28 25 25 27 27 29 30 31 31 30 30 30 30 30 29 29 29 28 25 23 21 19 17 15 14 10 8 10 16 23 26
33 31 28 26 25 24 25 26 27 27 27 28 29 30 32 33 34 36 36 35 33 31 27 25 26 26 27 28 29 29 29 29 29 29 29 29 30 30 29 27 25 25 23 20 17 14 11 8 8 13 20 25
32 29 27 26 25 25 26 27 28 28 28 29 31 31 32 33 35 36 37 37 35 33 30 26 25 26 26 27 28 28 28 28 29 29 28 28 28 29 29 29 27 27 26 24 21 16 13 11 6 9 16 21
31 28 26 25 25 26 27 28 29 30 30 31 32 32 33 34 35 36 37 37 36 34 31 28 26 26 26 27 27 28 27 26 28 29 28 28 27 27 28 28 28 27 27 26 24 20 16 13 9 5 10 16
31 28 27 26 26 27 28 30 31 31 32 33 33 34 35 35 35 36 36 36 35 34 32 29 27 26 27 26 27 27 26 25 26 27 27 27 27 27 26 25 26 26 27 27 26 23 20 17 13 9 6 9
30 29 28 27 27 28 29 31 32 33 34 34 35 36 36 36 35 35 35 35 34 33 32 30 27 26 26 26 26 26 26 24 24 25 25 25 25 26 25 24 24 24 24 26 27 25 23 20 18 15 11 8
29 29 28 28 29 29 30 31 32 34 35 37 37 37 35 34 33 32 32 33 32 31 30 30 28 26 25 26 25 24 25 24 22 24 24 23 23 24 25 24 23 22 22 23 26 27 25 22 21 19 17 14
29 29 29 29 30 31 32 33 34 35 37 38 37 35 33 32 30 29 29 31 30 29 29 29 30 28 26 26 26 24 24 24 22 22 23 23 23 22 23 24 24 23 22 22 23 26 26 25 23 21 20 19
29 29 29 30 31 32 33 34 35 36 36 35 34 33 32 31 29 27 27 29 28 28 29 29 31 30 27 26 27 26 24 24 23 21 21 23 23 22 22 23 24 24 24 23 22 23 25 26 25 23 22 20
29 30 30 31 32 33 33 34 34 34 34 33 32 32 32 31 30 28 27 28 29 28 29 29 29 30 29 28 27 27 26 25 24 23 21 21 23 23 22 22 23 23 24 25 24 22 22 25 25 25 24 22
30 31 32 32 33 33 33 33 32 31 32 32 32 31 31 31 29 28 27 27 29 28 28 28 28 28 29 29 27 27 27 26 25 25 23 21 21 23 23 23 23 24 23 24 26 24 22 22 24 25 26 25
32 33 33 33 32 32 32 32 31 31 31 31 31 30 28 28 27 26 26 26 27 27 26 26 26 26 27 28 28 27 28 28 27 27 27 25 23 22 23 23 23 24 24 23 25 26 24 22 22 24 25 26
33 34 34 33 32 31 32 33 33 32 31 30 29 27 25 25 25 24 24 25 25 25 25 24 24 24 25 26 27 27 28 29 29 28 29 29 27 25 25 25 24 25 26 25 24 26 26 25 23 23 23 24
34 34 34 33 33 32 33 34 34 32 30 28 26 26 24 23 24 24 24 24 24 24 24 24 24 23 24 25 26 27 28 29 30 31 30 31 32 30 28 28 27 26 27 27 26 25 26 27 25 24 23 23
34 34 33 33 34 34 34 34 33 31 28 26 25 25 24 24 26 26 25 25 25 24 24 24 24 24 24 24 25 26 27 28 30 32 32 32 33 35 33 31 30 30 29 29 28 27 26 27 27 27 26 24
34 34 32 33 34 34 34 32 31 28 26 25 25 25 24 25 28 28 28 27 27 26 25 25 25 25 25 25 25 26 27 28 29 31 34 34 34 36 36 35 34 33 32 31 30 29 28 27 27 28 28 27
34 33 32 32 33 33 32 30 28 25 24 24 24 25 24 25 27 30 30 30 30 29 28 27 27 27 27 27 26 27 28 29 29 30 33 35 35 36 37 38 37 35 35 35 33 32 30 28 28 28 28 29
33 32 32 33 32 31 29 28 27 25 23 23 24 24 24 24 25 28 31 32 32 32 31 31 30 29 29 29 29 29 30 30 31 32 33 35 37 37 37 38 39 38 37 37 35 34 32 31 30 29 28 28
31 31 32 33 32 29 27 26 26 25 24 23 24 23 22 22 23 25 28 30 31 32 33 33 33 32 31 31 31 31 32 32 33 34 35 36 38 39 39 38 39 38 37 37 36 34 32 31 30 29 29 28
31 31 32 33 32 29 28 26 25 24 24 24 24 22 21 22 22 22 24 26 28 30 31 33 34 34 33 33 33 33 34 35 36 36 37 38 38 38 38 37 36 34 35 35 35 34 32 29 28 26 25 26
30 30 31 33 31 29 28 25 24 24 23 23 23 22 21 21 21 21 21 23 25 26 28 31 32 33 34 34 35 35 36 36 37 37 37 36 35 33 32 32 30 29 30 30 31 33 32 28 23 19 17 19
30 30 30 31 31 29 27 25 23 23 23 23 23 22 20 20 20 19 19 20 22 24 26 28 29 30 32 33 35 36 36 37 36 35 33 31 29 28 26 26 25 24 24 25 27 27 25 22 18 16 13 13
30 30 30 30 30 29 27 24 22 22 22 22 22 21 19 19 19 18 17 18 19 21 23 24 26 26 28 30 32 33 34 33 31 29 28 26 25 24 24 23 22 21 21 22 23 21 18 17 14 12 12 13
30 30 30 30 30 29 27 24 21 21 21 21 20 20 19 18 17 17 16 16 17 18 19 21 22 23 24 25 26 27 27 27 26 25 24 23 23 22 21 21 21 21 20 20 18 17 16 13 10 10 14 18
30 30 30 30 29 29 27 24 21 20 20 20 19 19 18 17 16 15 15 15 15 15 16 17 18 19 20 20 21 22 22 23 23 23 23 22 21 21 20 20 21 21 19 17 16 15 13 10 10 16 19 20
30 30 30 30 30 29 27 25 22 19 20 20 19 19 18 17 16 15 15 15 14 14 15 15 16 17 17 18 19 20 21 21 21 22 21 21 20 20 20 20 21 21 19 18 16 13 13 13 14 16 17 16
Wind_Direction
321 321 321 320 318 316 316 315 315 315 314 313 313 314 317 318 318 319 317 316 315 315 314 311 309 309 312 315 316 314 312 305 304 311 320 329 336 335 328 310 285 248 230 225 221 220 210 198 207 211 212 214
317 317 318 317 316 315 313 312 311 312 312 311 311 311 313 316 317 318 317 315 312 310 309 310 309 308 308 312 315 313 310 307 304 307 309 312 320 326 330 323 309 294 254 236 225 221 216 191 189 204 207 205
317 317 317 316 314 313 310 309 308 308 310 311 311 311 312 314 315 317 317 314 312 308 306 307 307 306 306 307 311 313 311 309 308 308 305 303 307 311 320 328 323 312 295 270 245 226 217 195 177 195 203 202
325 323 321 319 316 313 311 309 308 308 310 311 311 311 312 314 315 316 317 316 314 309 304 304 305 304 304 304 307 310 311 311 311 310 306 303 302 302 307 317 326 321 312 297 280 255 226 208 181 189 198 202
333 332 328 323 319 316 315 314 313 314 315 315 313 313 313 315 317 318 319 318 317 313 306 304 305 303 302 302 303 306 308 311 313 311 308 305 301 299 300 303 312 318 316 309 295 289 256 225 199 189 195 201
334 334 331 327 324 322 320 320 320 319 320 319 317 317 316 317 319 321 322 321 319 318 312 305 305 304 301 300 300 301 303 306 310 312 311 308 303 299 298 297 299 306 310 311 304 300 290 247 211 194 196 201
332 331 330 329 328 327 325 324 324 323 323 322 321 320 319 319 321 322 324 323 321 318 316 308 304 304 302 300 298 297 298 300 303 306 309 310 307 302 299 296 295 299 302 306 307 304 299 280 223 199 198 202
330 330 329 329 329 329 328 326 326 325 324 324 323 322 321 321 321 322 323 324 321 317 315 312 306 305 303 301 299 297 294 294 295 298 303 305 306 306 303 300 296 296 297 298 301 303 300 299 278 211 202 204
330 330 329 328 328 328 327 326 325 325 324 323 322 321 320 320 321 321 321 321 320 317 315 313 310 308 307 305 302 301 297 293 291 292 296 300 303 305 306 305 302 299 297 295 293 297 295 295 302 267 216 209
330 330 328 326 325 325 324 323 323 323 322 321 320 319 318 318 317 317 317 317 317 316 314 312 311 310 310 309 307 306 304 298 294 292 291 295 299 301 304 305 305 304 301 297 291 289 288 286 290 297 276 229
329 328 326 323 322 321 320 320 320 320 319 318 317 316 315 314 313 313 314 313 312 313 312 311 311 309 310 312 312 311 312 308 300 297 293 292 293 295 298 300 301 304 303 300 294 288 282 279 279 284 291 278
327 325 322 318 317 316 316 317 316 316 316 315 314 313 311 309 309 310 309 307 307 308 308 309 309 307 306 311 315 315 316 315 308 302 298 294 291 288 290 293 294 297 301 299 296 292 285 277 273 273 277 281
325 322 318 315 314 313 313 313 313 313 312 312 312 311 310 308 307 307 305 302 301 303 303 304 307 307 305 306 312 315 316 317 315 309 303 300 295 289 286 287 289 290 294 296 294 293 291 284 275 270 269 270
321 317 314 312 311 310 310 309 309 310 310 311 311 309 309 307 306 305 302 296 294 295 297 300 303 306 307 304 305 310 314 316 318 316 311 305 302 297 289 285 285 284 285 289 292 290 291 291 283 274 269 265
317 314 312 310 309 308 307 307 308 308 309 310 310 308 306 305 303 302 298 290 287 289 292 296 299 302 305 306 303 305 310 314 315 317 317 313 308 304 299 291 286 284 280 281 286 288 287 289 289 282 273 268
314 312 311 310 309 309 309 309 309 310 310 309 309 307 304 302 300 298 295 287 283 285 286 289 294 297 300 304 305 304 306 310 312 314 315 315 311 307 303 297 291 287 282 276 278 284 285 284 287 287 280 273
313 312 312 311 311 312 312 311 311 311 311 310 309 306 302 298 296 293 290 285 280 280 281 284 288 292 295 299 303 304 304 307 310 311 312 313 310 307 304 299 293 289 284 277 272 275 280 281 281 284 284 279
313 312 312 312 312 313 313 312 312 312 311 310 307 304 298 291 289 286 283 280 277 276 277 280 282 286 291 294 298 302 303 305 308 310 311 313 312 309 306 304 300 293 288 282 273 268 271 275 277 278 280 281
312 311 311 310 311 313 313 312 312 312 311 309 305 300 292 284 280 278 277 275 274 273 274 276 278 281 285 289 293 297 301 303 305 308 310 312 313 312 309 306 304 300 294 287 281 272 266 267 271 272 275 277
311 310 309 308 310 312 312 312 311 311 310 307 303 298 289 279 274 272 271 270 270 271 272 274 276 278 281 284 288 292 296 300 302 306 308 310 313 313 312 308 306 303 299 293 286 280 271 266 266 267 270 273
309 308 307 307 309 311 312 312 312 312 310 306 302 296 289 279 273 270 268 267 267 269 271 273 274 276 279 282 285 288 292 296 299 303 306 308 310 312 312 310 307 304 302 297 291 285 278 271 266 263 265 269
307 307 306 307 309 311 312 313 313 314 310 305 300 295 291 284 276 271 268 266 266 267 270 273 274 276 278 281 284 287 290 293 297 299 302 305 307 309 309 310 309 306 303 300 296 290 283 276 269 264 261 263
306 306 305 306 308 310 312 314 316 317 314 307 301 298 296 290 282 275 271 268 267 267 268 271 273 275 278 281 284 287 289 291 295 298 300 302 305 306 306 307 308 307 304 300 298 295 289 282 274 268 264 261
305 305 304 305 308 311 312 315 317 318 317 311 306 303 301 296 289 281 275 271 270 268 269 270 271 273 276 279 283 286 289 291 295 297 300 302 304 305 304 304 304 305 304 301 298 295 291 288 282 275 270 267
304 304 305 307 309 311 312 315 317 317 316 311 307 305 303 300 295 288 281 276 274 272 271 271 271 273 275 278 281 284 288 292 295 298 300 301 302 303 303 302 302 304 304 302 301 299 294 290 288 283 277 273
304 304 305 307 309 310 311 313 315 316 315 309 305 305 303 301 297 293 288 283 280 277 275 274 273 273 275 277 280 283 287 291 295 298 300 301 302 303 303 303 304 305 306 306 307 308 304 301 298 290 277 269
303 303 303 306 308 308 308 310 313 314 312 306 303 303 301 300 299 297 294 289 284 281 280 278 278 277 276 277 279 283 287 291 295 298 301 303 304 306 307 307 308 308 309 309 312 313 313 318 316 299 279 255
302 300 301 304 307 306 304 305 308 309 307 302 299 299 296 296 299 301 300 295 289 286 284 283 282 280 278 278 280 283 288 293 297 300 303 305 306 308 310 311 311 310 309 311 316 319 317 321 318 306 297 272
300 298 299 302 304 303 301 301 303 304 302 296 293 291 290 291 293 296 297 297 295 291 288 287 285 283 283 283 284 287 291 295 299 301 303 305 306 308 308 309 309 309 311 313 314 313 313 316 316 309 304 294
298 297 297 299 301 301 299 298 299 300 297 291 287 286 286 286 287 289 291 292 293 292 291 290 289 288 288 290 291 292 295 298 300 301 302 304 305 305 304 304 304 306 311 310 305 305 306 297 287 294 300 303
296 296 296 298 299 298 296 296 297 296 292 287 284 282 282 283 284 285 286 288 289 290 291 291 292 292 292 293 294 295 297 299 300 301 302 303 303 302 301 300 299 302 303 302 303 304 294 279 272 281 289 297